Regional Weather Roundup
Issued by NWS

Home | Current Version | Previous Version | Text Only | Print | Product List | Glossary On
Versions: 1 2 3 4 5 6 7 8 9 10 11 12 13 14 15 16 17 18 19 20 21 22 23 24 25 26 27 28 29 30 31 32 33 34 35 36 37 38 39 40 41 42 43 44 45 46 47 48 49 50
000
ASUS44 KEWX 200802
RWRTX
SOUTH TEXAS REGIONAL WEATHER ROUNDUP
NATIONAL WEATHER SERVICE AUSTIN/SAN ANTONIO TX
300 AM CDT SAT SEP 20 2014

NOTE: "FAIR" INDICATED FEW OR NO CLOUDS BELOW 12,000 FEET WITH NO
SIGNIFICANT WEATHER AND/OR OBSTRUCTIONS TO VISIBILITY.

* - THESE STATIONS ARE NOT NWS OR FAA STATIONS...AND ARE NOT SUBJECT
    TO NWS AND FAA QUALITY CONTROL.

TXZ171-172-183>190-200900-
TEXAS HILL COUNTRY AND EDWARDS PLATEAU

CITY           SKY/WX    TMP DP  RH WIND       PRES   REMARKS
JUNCTION       CLOUDY    73  71  93 E3        29.97R
*LLANO         MOCLDY    73  73 100 CALM      29.99R
BURNET         CLOUDY    74  72  93 CALM      29.98S
*HORSESHOE BAY MOCLDY    73  73 100 CALM      29.95F
*KERRVILLE     LGT RAIN  73  71  94 S5        29.97S
*FREDERICKSBRG CLOUDY    73  71  94 CALM      29.97S
*ROCKSPRINGS   CLEAR     72  70  94 SE9       30.00S
*BOERNE STAGE  CLOUDY    73  70  88 SE6       29.97S
*CASTROVILLE   CLOUDY    75  73  92 E3        29.94F
HONDO          CLOUDY    76  72  87 E8        29.95S
*UVALDE        MOCLDY    75  73  92 E7        29.93S
DEL RIO        CLOUDY    79  71  76 E12       29.88F
LAUGHLIN AFB   NOT AVBL
CARRIZO SPRGS  MOCLDY    77  73  88 E7        29.87F
$$

TXZ173-191>194-202-209-217>225-228-200900-
CENTRAL AND SOUTH CENTRAL TEXAS

CITY           SKY/WX    TMP DP  RH WIND       PRES   REMARKS
GEORGETOWN     CLOUDY    73  73 100 SE5       29.95S
AUSTIN/BERGSTM CLOUDY    76  74  93 SE3       29.93S
AUSTIN/MABRY   CLOUDY    75  73  93 VRB3      29.95R
*AUSTIN/EXEC   CLOUDY    75  73  94 S6        29.94F
*LAGO VISTA    LGT RAIN  75  73  92 S5        29.96S
SAN MARCOS     MOCLDY    73  70  88 CALM      29.94S
NEW BRAUNFELS  MOCLDY    75  73  93 SE5       29.93R
RANDOLPH AFB   MOCLDY    75  73  94 SE3       29.94S
PT SAN ANTONIO MOCLDY    76  73  91 E6        29.92S
SAN ANTONIO    MOCLDY    76  73  91 SE8       29.94S
STINSON FIELD  MOCLDY    76  73  91 E5        29.91F
*PLEASANTON    PTCLDY    74  73  93 CALM      29.91F
*LA GRANGE     CLEAR     76  75  99 CALM      29.91F
*GIDDINGS      CLEAR     73  72  95 CALM      29.98S
*GONZALES      CLEAR     75  75  98 CALM      29.91F
$$

TXZ163>164-176>182-195>201-210>213-226-227-235-200900-
SOUTHEAST TEXAS

CITY           SKY/WX    TMP DP  RH WIND       PRES   REMARKS
COLLEGE STN    MOCLDY    74  72  93 NE5       29.95R
*BRYAN         MOCLDY   N/A N/A N/A CALM      29.95R HAZE
*CALDWELL      PTCLDY    73  73 100 CALM      29.98R
*CROCKETT      CLEAR     73  73 100 E3        29.99R
*BRENHAM       PTCLDY    74  73  96 CALM      29.94S
HUNTSVILLE     CLEAR     71  69  93 CALM      29.95S
CONROE         MOCLDY    71  70  96 CALM      29.95R
HOUSTON BUSH   PTCLDY    74  73  97 CALM      29.92S
HOUSTON HOBBY  MOCLDY    76  74  93 CALM      29.91R
*HOUSTON SW AP CLOUDY    67  66  94 E3        29.92S
PEARLAND       CLOUDY    78  75  90 CALM      29.92R
HOUSTON HOOKS  PTCLDY    74  72  93 CALM      29.93R
ELLINGTON FLD  PTCLDY    77  75  94 CALM      29.92S
SUGAR LAND     PTCLDY    76  74  93 N3        29.91S
*HOUSTON EXEC  PTCLDY    73  73 100 N5        29.94R
*CLEVELAND MUN CLEAR     72  71  99 CALM      29.95S FOG
*WHARTON       PTCLDY    74  73  96 NE3       29.92S
$$

TXZ214>216-236>238-200900-
THE UPPER TEXAS COAST

CITY           SKY/WX    TMP DP  RH WIND       PRES   REMARKS
*ORANGE          N/A    N/A N/A N/A CALM      29.94S FOG
PORT ARTHUR    CLEAR     76  71  85 E7        29.92S
GALVESTON      CLEAR     81  72  74 E12       29.91S
ANGLETON       MOCLDY    76  74  93 E5        29.90S
*BAY CITY      PTCLDY   N/A N/A N/A NE3       29.90R
PALACIOS       PTCLDY    75  74  96 NE6       29.89R
$$

TXZ229>234-239>247-200900-
TEXAS COASTAL BEND AND RIO GRANDE PLAINS

CITY           SKY/WX    TMP DP  RH WIND       PRES   REMARKS
VICTORIA       MOCLDY    79  75  87 NE3       29.90S
*BEEVILLE      CLEAR     75  75 100 NE5       29.89F
ROCKPORT       CLEAR     81  76  84 SE7       29.87S
*PORT ARANSAS  PTCLDY    82  75  81 SE9       29.87S
*PORT LAVACA   NOT AVBL
*INGLESIDE     CLEAR     81  75  82 SE3       29.87R
CORPUS CHRISTI MOCLDY    79  76  90 E3        29.87S
CORPUS NAS     CLEAR     80  79  96 SE7       29.86S
*ROBSTOWN      NOT AVBL
ALICE          PTCLDY    78  76  93 NE3       29.88S
KINGSVILLE NAS CLOUDY    77  77 100 S8        29.88R
COTULLA        MOCLDY    79  73  82 E8        29.89S
*FAITH RANCH   MOCLDY    81  75  83 E8        29.89F
LAREDO         LGT RAIN  80  80 100 E6        29.89F
$$

TXZ248>255-200900-
DEEP SOUTH TEXAS

CITY           SKY/WX    TMP DP  RH WIND       PRES   REMARKS
BROWNSVILLE    CLOUDY    82  79  90 CALM      29.85F HX  92
PORT ISABEL    CLOUDY    82  78  88 SE6       29.85S HX  91
*SOUTH PADRE   CLOUDY    82  79  89 S7        29.86S HX  93
HARLINGEN        N/A     80  79  96 CALM      29.85S
*HEBBRONVILLE    N/A     79  77  94 E7        29.89S FOG
MCALLEN        CLOUDY    81  79  94 E5        29.85F HX  90
*WESLACO       CLOUDY    82  77  86 CALM      29.85S
FALFURRIAS     PTCLDY   N/A N/A N/A E3        29.87S
EDINBURG       CLOUDY    82  78  89 CALM      29.85F FOG     HX  90
*ZAPATA        PTCLDY    77  70  77 S6        29.85F
$$

TXZ213>215-236>238-242>244-246-247-251-254-255-200900-
CMAN STATIONS

STATION/POSITION TIME  TEMP    WIND        PRES    WAVE
                       AIR SEA DIR/SP/G            HT/PER
                 (UTC) (F)     (DEG/KT/KT) (MB)    (FT/S)
SABINE PASS      0700   76 81   60/  7/  9 1013.2
SEA RIM ST PARK  0700   80      90/  8/ 10 1013.5
NORTH JETTY/GLS  0700   82 82                N/A
EAGLE POINT      0700   81 80  120/ 13/ 15 1012.8
MORGANS POINT    0700   78      80/  6/  7 1012.9
MISSION/ARANSAS  0700          120/  7     1012.0
PORT O`CONNOR    0700          120/ 10/ 12   N/A
PORT ARANSAS     0700   83 84  110/ 12/ 13 1011.8
MALAQUITE BEACH  0700   83 85  110/ 10/ 12 1010.7
BAFFIN BAY       0700   82 84  120/  8/ 10 1011.3
PORT ISABEL      0700   82 85   CALM  /  2 1011.4
$$

GMZ080-GMZ150>470-200900-
OFFSHORE BUOY REPORTS

STATION/POSITION TIME  TEMP    WIND        PRES    WAVE
                       AIR SEA DIR/SP/G            HT/PER
                 (UTC) (F)     (DEG/KT/KT) (MB)    (FT/S)
20 E GALVESTON   0800   82 83  100/ 12/ 14 1012.0    4/ 5
90 E PT ARANSAS  0800   82 85  110/ 10/ 12 1011.7    2/ 4
35 NE PT MANSFLD 0700   83 84  130/ 10/ 10 1010.6    3/ 5
200 E PT ISABEL  0700   82 85  100/  8/ 10 1010.9    2/ 5
$$



USA.gov is the U.S. government's official web portal to all federal, state and local government web resources and services.